Location: Ostrava
(49.8330°N, 18.2830°E)
Time: 03:07:28
(UTC+02:00)

Envisat - Pass Details

Date: 24 January 2022
Orbit: 764 x 765 km, 98.2° (Epoch: 22 May)

Event Time Altitude Azimuth Distance (km) Brightness Sun altitude
Rises 04:50:02 0° 14° (NNE) 3,243 6.4 -25.6°
Reaches altitude 10° 04:52:21 10° 15° (NNE) 2,312 5.6 -25.2°
Maximum altitude 04:57:27 86° 103° (ESE) 774 2.9 -24.4°
Drops below altitude 10° 05:02:32 10° 194° (SSW) 2,296 5.3 -23.6°
Sets 05:04:49 0° 195° (SSW) 3,218 6.1 -23.2°
